Air Resources Laboratory banner image
Air Resources Laboratory web site National Oceanic and Atmospheric Administration (NOAA)

wa zone


SCZ050-WAZ558-NCZ071-TXZ119-213-PAZ071-DCZ001-FLZ074-172-MI076-
NYZ176-178-MAZ016-IL014-TNZ027-NJZ106-GAZ044-MD014-170800-

...Gateway Observations for Charleston International...

CITY           SKY/WX    TMP DP  RH WIND       PRES   REMARKS
Chas Airport   MOCLDY    74  69  85 N7        29.88F
Seattle        CLEAR     69  54  58 NE12      30.02
Charlotte      MOCLDY    68  65  90 N7        29.97S
Dallas DFW     NOT AVBL
Dallas Love    NOT AVBL
Philladelphia  MOCLDY    70  61  73 N3        30.01S
Wash National  PTCLDY    69  62  78 CALM      30.00
Baltimore      NOT AVBL
Miami          NOT AVBL
Detroit        NOT AVBL
Newark         MOCLDY    71  64  78 CALM      30.00S
Laguardia      MOCLDY    71  57  61 E9        30.00S
J F K          CLOUDY    68  59  73 E6        30.01S
Boston Logan   LGT RAIN  68  61  78 N7        30.00
Ft. Lauderdale NOT AVBL
Chicago O'Hare NOT AVBL
Chicago Midway NOT AVBL
Houston Bush   PTCLDY    81  75  82 S3        29.94
Houston Hobby  PTCLDY    80  75  84 SW6       29.93
Nashville      PTCLDY    68  63  84 NW3       29.99F
Atlanta        NOT AVBL
London Heathrw CLOUDY    64  63  94 NE5       29.86  HAZE


SCZ050-WAZ558-NCZ071-TXZ119-213-PAZ071-DCZ001-FLZ074-172-MI076-
NYZ176-178-MAZ016-IL014-TNZ027-NJZ106-GAZ044-MD014-170800-

...Gateway Observations for Charleston International...

CITY           SKY/WX    TMP DP  RH WIND       PRES   REMARKS
Chas Airport   MOCLDY    74  69  85 N7        29.88F
Seattle        CLEAR     69  54  58 NE12      30.02
Charlotte      MOCLDY    68  65  90 N7        29.97S
Dallas DFW     NOT AVBL
Dallas Love    NOT AVBL
Philladelphia  MOCLDY    70  61  73 N3        30.01S
Wash National  PTCLDY    69  62  78 CALM      30.00
Baltimore      NOT AVBL
Miami          NOT AVBL
Detroit        NOT AVBL
Newark         MOCLDY    71  64  78 CALM      30.00S
Laguardia      MOCLDY    71  57  61 E9        30.00S
J F K          CLOUDY    68  59  73 E6        30.01S
Boston Logan   LGT RAIN  68  61  78 N7        30.00
Ft. Lauderdale NOT AVBL
Chicago O'Hare NOT AVBL
Chicago Midway NOT AVBL
Houston Bush   PTCLDY    81  75  82 S3        29.94
Houston Hobby  PTCLDY    80  75  84 SW6       29.93
Nashville      PTCLDY    68  63  84 NW3       29.99F
Atlanta        NOT AVBL
London Heathrw CLOUDY    64  63  94 NE5       29.86  HAZE